Time,TemperatureF,DewpointF,PressureIn,WindDirection,WindDirectionDegrees,WindSpeedMPH,WindSpeedGustMPH,Humidity,HourlyPrecipIn,Conditions,Clouds,dailyrainin,SoftwareType,DateUTC
2013-03-06 00:01:00,35.0,33.0,-100.00,SSE,165,6.0,12.0,92,-99.99,,,-99.99,,2013-03-06 08:01:00,
2013-03-06 01:01:00,35.0,33.0,-100.00,SSE,150,9.0,12.0,92,-99.99,,,-99.99,,2013-03-06 09:01:00,
2013-03-06 01:12:00,35.0,33.0,-100.00,SSE,150,9.0,12.0,92,-99.99,,,-99.99,,2013-03-06 09:12:00,
2013-03-06 02:01:00,35.0,33.0,-100.00,South,175,7.0,10.0,92,-99.99,,,-99.99,,2013-03-06 10:01:00,
2013-03-06 03:02:00,35.0,33.0,-100.00,South,175,7.0,12.0,92,-99.99,,,-99.99,,2013-03-06 11:02:00,
2013-03-06 03:11:00,35.0,33.0,-100.00,South,175,7.0,12.0,92,-99.99,,,-99.99,,2013-03-06 11:11:00,
2013-03-06 04:02:00,35.0,33.0,-100.00,SSE,155,6.0,9.0,92,-99.99,,,-99.99,,2013-03-06 12:02:00,
2013-03-06 05:02:00,34.0,33.0,-100.00,SSE,160,6.0,9.0,96,-99.99,,,-99.99,,2013-03-06 13:02:00,
2013-03-06 05:10:00,33.0,32.0,-100.00,South,170,6.0,10.0,96,-99.99,,,-99.99,,2013-03-06 13:10:00,
2013-03-06 05:11:00,34.0,33.0,-100.00,SSE,160,6.0,9.0,96,-99.99,,,-99.99,,2013-03-06 13:11:00,
2013-03-06 06:01:00,33.0,32.0,-100.00,South,170,6.0,10.0,96,-99.99,,,-99.99,,2013-03-06 14:01:00,
2013-03-06 06:10:00,33.0,31.0,-100.00,South,175,6.0,9.0,92,-99.99,,,-99.99,,2013-03-06 14:10:00,
2013-03-06 07:01:00,33.0,31.0,-100.00,South,175,6.0,9.0,92,-99.99,,,-99.99,,2013-03-06 15:01:00,
2013-03-06 08:01:00,33.0,32.0,-100.00,SSE,160,5.0,7.0,96,-99.99,,,-99.99,,2013-03-06 16:01:00,
2013-03-06 08:10:00,33.0,32.0,-100.00,South,170,6.0,9.0,96,-99.99,,,-99.99,,2013-03-06 16:10:00,
2013-03-06 09:00:00,34.0,33.0,-100.00,SSE,155,5.0,10.0,96,-99.99,,,-99.99,,2013-03-06 17:00:00,
2013-03-06 09:01:00,33.0,32.0,-100.00,South,170,6.0,9.0,96,-99.99,,,-99.99,,2013-03-06 17:01:00,
2013-03-06 10:10:00,35.0,34.0,-100.00,SSE,165,7.0,10.0,96,-99.99,,,-99.99,,2013-03-06 18:10:00,
2013-03-06 11:02:00,35.0,34.0,-100.00,SSE,165,7.0,10.0,96,-99.99,,,-99.99,,2013-03-06 19:02:00,
2013-03-06 11:20:00,35.0,33.0,-100.00,SSE,155,10.0,13.0,92,-99.99,,,-99.99,,2013-03-06 19:20:00,
2013-03-06 12:01:00,35.0,33.0,-100.00,SSE,155,10.0,13.0,92,-99.99,,,-99.99,,2013-03-06 20:01:00,
2013-03-06 12:10:00,35.0,33.0,-100.00,SSE,160,9.0,13.0,92,-99.99,,,-99.99,,2013-03-06 20:10:00,
2013-03-06 12:11:00,35.0,33.0,-100.00,SSE,155,10.0,13.0,92,-99.99,,,-99.99,,2013-03-06 20:11:00,
2013-03-06 13:00:00,35.0,33.0,-100.00,SSE,150,9.0,14.0,92,-99.99,,,-99.99,,2013-03-06 21:00:00,
2013-03-06 13:02:00,35.0,33.0,-100.00,SSE,160,9.0,13.0,92,-99.99,,,-99.99,,2013-03-06 21:02:00,
2013-03-06 14:10:00,36.0,35.0,-100.00,SSE,160,9.0,12.0,96,-99.99,,,-99.99,,2013-03-06 22:10:00,
2013-03-06 15:01:00,36.0,35.0,-100.00,SSE,160,9.0,12.0,96,-99.99,,,-99.99,,2013-03-06 23:01:00,
2013-03-06 16:01:00,38.0,36.0,-100.00,SSE,160,7.0,13.0,92,-99.99,,,-99.99,,2013-03-07 00:01:00,
2013-03-06 16:11:00,38.0,36.0,-100.00,SSE,160,7.0,13.0,92,-99.99,,,-99.99,,2013-03-07 00:11:00,
2013-03-06 17:01:00,38.0,35.0,-100.00,SE,145,7.0,10.0,88,-99.99,,,-99.99,,2013-03-07 01:01:00,
2013-03-06 18:01:00,38.0,36.0,-100.00,ESE,105,2.0,3.0,92,-99.99,,,-99.99,,2013-03-07 02:01:00,
2013-03-06 18:11:00,38.0,36.0,-100.00,ESE,105,2.0,3.0,92,-99.99,,,-99.99,,2013-03-07 02:11:00,
2013-03-06 19:01:00,38.0,36.0,-100.00,NW,310,0.0,2.0,92,-99.99,,,-99.99,,2013-03-07 03:01:00,
2013-03-06 20:01:00,38.0,36.0,-100.00,NNE,25,1.0,1.0,92,-99.99,,,-99.99,,2013-03-07 04:01:00,
2013-03-06 20:11:00,38.0,36.0,-100.00,NNE,25,1.0,1.0,92,-99.99,,,-99.99,,2013-03-07 04:11:00,
2013-03-06 21:01:00,38.0,36.0,-100.00,NW,315,1.0,2.0,92,-99.99,,,-99.99,,2013-03-07 05:01:00,
2013-03-06 22:01:00,37.0,35.0,-100.00,North,-999,0.0,0.0,92,-99.99,,,-99.99,,2013-03-07 06:01:00,
2013-03-06 22:11:00,37.0,35.0,-100.00,North,-999,0.0,0.0,92,-99.99,,,-99.99,,2013-03-07 06:11:00,
2013-03-06 23:01:00,36.0,35.0,-100.00,NW,315,0.0,1.0,96,-99.99,,,-99.99,,2013-03-07 07:01:00,
2013-03-06 23:10:00,36.0,35.0,-100.00,SSE,165,1.0,1.0,96,-99.99,,,-99.99,,2013-03-07 07:10:00,